SBI1073 UUDD-UWWW

Flight info

Callsign SBI1073
Flight time N/A
Altitude 35000
Route TOGMO4Q TOGMO M56 ABAGI T794 RUBEK RUBEK8T
Aircraft A320/M-SDE3FGHIRWY/LB1

Departure

Time N/A
Airport Domodedovo International Airport (UUDD)

Arrival

Time 2026-05-05 19:11
Airport Kurumoch International Airport (UWWW)
Time Latitude Longitude Altitude Speed Heading
2026-05-05 18:58 53.71296 49.23181 2950 ft 269 kts 105°
2026-05-05 18:58 53.70844 49.26247 2957 ft 270 kts 105°
2026-05-05 18:58 53.70390 49.29320 2955 ft 269 kts 105°
2026-05-05 18:59 53.69936 49.32388 2947 ft 269 kts 105°
2026-05-05 18:59 53.69635 49.34416 2964 ft 269 kts 105°
2026-05-05 18:59 53.69180 49.37485 2960 ft 270 kts 105°
2026-05-05 18:59 53.68674 49.40497 2959 ft 262 kts 113°
2026-05-05 19:00 53.67788 49.43131 2964 ft 256 kts 129°
2026-05-05 19:00 53.66059 49.45781 2955 ft 253 kts 148°
2026-05-05 19:00 53.65072 49.46899 2967 ft 254 kts 147°
2026-05-05 19:00 53.63609 49.48562 2958 ft 253 kts 148°
2026-05-05 19:01 53.62150 49.50229 2954 ft 254 kts 147°
2026-05-05 19:01 53.60695 49.51896 2951 ft 252 kts 147°
2026-05-05 19:01 53.59269 49.53528 2964 ft 247 kts 147°
2026-05-05 19:01 53.57979 49.55381 2953 ft 245 kts 131°
2026-05-05 19:02 53.57095 49.57826 2967 ft 246 kts 112°
2026-05-05 19:02 53.56706 49.60632 2968 ft 248 kts 95°
2026-05-05 19:02 53.56562 49.63510 2953 ft 243 kts 91°
2026-05-05 19:02 53.56852 49.66198 2971 ft 231 kts 68°
2026-05-05 19:03 53.57673 49.68496 2965 ft 229 kts 56°
2026-05-05 19:03 53.58566 49.70715 2967 ft 229 kts 56°
2026-05-05 19:03 53.59460 49.72935 2976 ft 229 kts 56°
2026-05-05 19:03 53.60353 49.75155 2969 ft 229 kts 56°
2026-05-05 19:04 53.61246 49.77378 2969 ft 229 kts 56°
2026-05-05 19:04 53.62138 49.79599 2971 ft 229 kts 56°
2026-05-05 19:04 53.63030 49.81824 2974 ft 229 kts 56°
2026-05-05 19:04 53.63920 49.84049 2966 ft 229 kts 56°
2026-05-05 19:05 53.64811 49.86275 2964 ft 229 kts 56°
2026-05-05 19:05 53.65704 49.88502 2972 ft 229 kts 56°
2026-05-05 19:05 53.66582 49.90692 2967 ft 221 kts 56°
2026-05-05 19:05 53.67425 49.92806 2967 ft 219 kts 56°
2026-05-05 19:06 53.68203 49.94972 2959 ft 212 kts 70°
2026-05-05 19:06 53.68421 49.97382 2977 ft 207 kts 97°
2026-05-05 19:06 53.68240 49.99790 2978 ft 206 kts 99°
2026-05-05 19:06 53.68052 50.02188 2982 ft 206 kts 99°
2026-05-05 19:07 53.67804 50.04566 2961 ft 205 kts 110°
2026-05-05 19:07 53.67140 50.06657 2979 ft 201 kts 131°
2026-05-05 19:07 53.66145 50.08126 2996 ft 186 kts 152°
2026-05-05 19:07 53.64980 50.08976 2892 ft 182 kts 162°
2026-05-05 19:08 53.63806 50.09676 2671 ft 174 kts 162°
2026-05-05 19:08 53.62702 50.10337 2468 ft 164 kts 162°
2026-05-05 19:08 53.61670 50.10958 2291 ft 153 kts 162°
2026-05-05 19:08 53.60687 50.11548 2109 ft 148 kts 162°
2026-05-05 19:09 53.59721 50.12128 1924 ft 146 kts 163°
2026-05-05 19:09 53.58761 50.12704 1764 ft 147 kts 163°
2026-05-05 19:09 53.57792 50.13285 1605 ft 148 kts 163°
2026-05-05 19:09 53.56821 50.13863 1397 ft 148 kts 162°
2026-05-05 19:10 53.55855 50.14452 1226 ft 146 kts 161°
2026-05-05 19:10 53.54923 50.15033 1067 ft 144 kts 162°
2026-05-05 19:10 53.53967 50.15587 852 ft 146 kts 162°
2026-05-05 19:10 53.53008 50.16166 674 ft 146 kts 161°
2026-05-05 19:11 53.52057 50.16735 517 ft 144 kts 162°
2026-05-05 19:11 53.51126 50.17285 424 ft 136 kts 161°
2026-05-05 19:11 53.50332 50.17756 408 ft 99 kts 162°
2026-05-05 19:11 53.49848 50.18047 406 ft 49 kts 160°
2026-05-05 19:12 53.49619 50.18188 399 ft 32 kts 161°
2026-05-05 19:12 53.49432 50.18298 394 ft 19 kts 161°
2026-05-05 19:12 53.49318 50.18285 392 ft 18 kts 225°
2026-05-05 19:12 53.49279 50.18092 395 ft 17 kts 268°
2026-05-05 19:13 53.49333 50.17936 395 ft 16 kts 332°
2026-05-05 19:13 53.49428 50.17876 400 ft 14 kts 340°
2026-05-05 19:13 53.49518 50.17823 400 ft 13 kts 340°
2026-05-05 19:13 53.49595 50.17776 401 ft 10 kts 340°
2026-05-05 19:14 53.49671 50.17731 401 ft 14 kts 341°
2026-05-05 19:14 53.49775 50.17670 401 ft 17 kts 341°
2026-05-05 19:14 53.49884 50.17604 401 ft 17 kts 341°
2026-05-05 19:14 53.50005 50.17529 401 ft 19 kts 339°
2026-05-05 19:15 53.50127 50.17459 404 ft 18 kts 340°